Simultaneous Nadir Overpasses (SNOs) Predictions

Prediction of SNOs between METOP-A and TERRA Satellite Orbit:

Table of predicted SNOs for the next 14.0 days since TLE Epoch: 9/28/2019
Index Date (METOP-A) Time (METOP-A) Lat,Lon (METOP-A) SZA (METOP-A ) Date (TERRA) Time (TERRA) Lat,Lon (TERRA) SZA (TERRA ) Distance(km) Time Diff (sec)
1 09/30/2019 18:11:34 -81.48, 131.27 92.99 09/30/2019 18:12:46 -81.24, 132.67 92.97 35.88 72
2 09/30/2019 19:02:01 81.45, -55.90 87.62 09/30/2019 19:02:02 81.44, -55.74 87.64 2.85 1
3 09/30/2019 19:52:41 -81.45, 111.78 92.33 09/30/2019 19:51:29 -81.44, 111.79 92.37 0.79 72
4 10/03/2019 13:45:45 -81.45,-157.04 91.31 10/03/2019 13:46:51 -81.44,-156.98 91.28 1.49 66
5 10/03/2019 14:36:25 81.45, 10.57 88.74 10/03/2019 14:36:17 81.45, 10.77 88.76 3.28 8
6 10/06/2019 09:20:09 -81.45, -90.57 90.20 10/06/2019 09:21:06 -81.45, -90.47 90.16 1.87 57
7 10/06/2019 10:10:48 81.44, 77.43 89.89 10/06/2019 10:10:32 81.45, 77.26 89.87 2.93 16
8 10/09/2019 04:54:32 -81.45, -24.12 89.10 10/09/2019 04:55:20 -81.45, -23.96 89.06 2.65 48
9 10/09/2019 05:45:11 81.44, 143.87 90.99 10/09/2019 05:44:46 81.45, 143.73 90.97 2.53 25
10 10/12/2019 00:28:55 -81.44, 42.70 87.98 10/12/2019 00:29:35 -81.45, 42.52 87.97 3.16 40




NCC Satellite Simultaneous Nadir Overpasses (SNOs) Prediction Service
